| time (UTC) | temp F | wind direction | speed knots | gust knots | rain 1hr in | rain 24hr in | rain mn in | humidity % | barometer mb |
| 20260510211358 | 54 | 226 | 0.0 | 1.7 | 0.00 | 0.31 | 0.28 | 80 | 1013.9 |
| 20260510210402 | 55 | 226 | 1.7 | 3.5 | 0.00 | 0.31 | 0.28 | 78 | 1013.8 |
| 20260510205903 | 55 | 226 | 0.9 | 7.0 | 0.00 | 0.31 | 0.28 | 78 | 1013.6 |
| 20260510205345 | 55 | 201 | 2.6 | 7.0 | 0.00 | 0.31 | 0.28 | 78 | 1013.6 |
| 20260510204845 | 55 | 201 | 3.5 | 7.8 | 0.00 | 0.42 | 0.28 | 78 | 1013.5 |
| 20260510204345 | 55 | 188 | 4.3 | 7.8 | 0.00 | 0.42 | 0.28 | 78 | 1013.6 |
| 20260510203848 | 55 | 221 | 4.3 | 7.0 | 0.00 | 0.42 | 0.28 | 78 | 1013.6 |
| 20260510203345 | 55 | 196 | 3.5 | 7.0 | 0.00 | 0.42 | 0.28 | 77 | 1013.5 |
| 20260510202850 | 55 | 192 | 3.5 | 7.0 | 0.00 | 0.42 | 0.28 | 77 | 1013.4 |
| 20260510202353 | 55 | 213 | 3.5 | 7.8 | 0.00 | 0.42 | 0.28 | 77 | 1013.4 |
| 20260510201854 | 55 | 216 | 4.3 | 7.8 | 0.00 | 0.42 | 0.28 | 77 | 1013.4 |
| 20260510201354 | 55 | 186 | 3.5 | 6.1 | 0.00 | 0.42 | 0.28 | 77 | 1013.3 |
| 20260510200854 | 55 | 189 | 4.3 | 6.1 | 0.00 | 0.42 | 0.28 | 76 | 1013.3 |
| 20260510200341 | 55 | 205 | 1.7 | 6.1 | 0.00 | 0.42 | 0.28 | 76 | 1013.1 |
| 20260510194852 | 55 | 196 | 4.3 | 7.0 | 0.00 | 0.44 | 0.28 | 74 | 1012.8 |
| 20260510194354 | 56 | 188 | 1.7 | 6.1 | 0.00 | 0.44 | 0.28 | 73 | 1012.8 |
| 20260510193855 | 56 | 210 | 2.6 | 7.8 | 0.00 | 0.44 | 0.28 | 72 | 1012.7 |
| 20260510193355 | 56 | 201 | 1.7 | 8.7 | 0.00 | 0.44 | 0.28 | 71 | 1012.6 |
| 20260510192858 | 56 | 222 | 2.6 | 8.7 | 0.00 | 0.44 | 0.28 | 71 | 1012.6 |
| 20260510192401 | 56 | 193 | 3.5 | 8.7 | 0.00 | 0.44 | 0.28 | 71 | 1012.6 |
| 20260510191901 | 57 | 200 | 4.3 | 7.8 | 0.00 | 0.44 | 0.28 | 70 | 1012.6 |
| 20260510190848 | 57 | 207 | 3.5 | 7.8 | 0.00 | 0.44 | 0.28 | 70 | 1012.5 |
| 20260510190349 | 57 | 213 | 4.3 | 8.7 | 0.00 | 0.44 | 0.28 | 69 | 1012.3 |
| 20260510185352 | 58 | 210 | 3.5 | 10.4 | 0.00 | 0.44 | 0.28 | 67 | 1012.1 |
| 20260510184853 | 58 | 201 | 5.2 | 10.4 | 0.00 | 0.47 | 0.28 | 66 | 1012.0 |
| 20260510183859 | 58 | 206 | 3.5 | 12.2 | 0.00 | 0.47 | 0.28 | 66 | 1012.1 |
| 20260510183358 | 58 | 239 | 3.5 | 12.2 | 0.00 | 0.47 | 0.28 | 66 | 1012.1 |
| 20260510182859 | 59 | 189 | 2.6 | 7.8 | 0.00 | 0.47 | 0.28 | 66 | 1012.0 |
| 20260510182342 | 59 | 221 | 4.3 | 7.8 | 0.00 | 0.47 | 0.28 | 66 | 1012.0 |
| 20260510181844 | 59 | 218 | 2.6 | 7.8 | 0.00 | 0.47 | 0.28 | 66 | 1011.9 |
| 20260510181346 | 59 | 197 | 2.6 | 9.6 | 0.00 | 0.47 | 0.28 | 65 | 1011.8 |
| 20260510175853 | 59 | 220 | 6.1 | 15.6 | 0.00 | 0.47 | 0.28 | 62 | 1011.9 |
| 20260510175355 | 59 | 180 | 7.8 | 14.8 | 0.00 | 0.47 | 0.28 | 63 | 1011.8 |
| 20260510174857 | 60 | 194 | 7.8 | 14.8 | 0.00 | 0.47 | 0.28 | 63 | 1011.8 |
| 20260510173402 | 60 | 196 | 4.3 | 11.3 | 0.00 | 0.47 | 0.28 | 63 | 1011.9 |
| 20260510172843 | 60 | 190 | 5.2 | 13.0 | 0.00 | 0.47 | 0.28 | 62 | 1011.8 |
| 20260510172344 | 60 | 178 | 6.1 | 13.9 | 0.00 | 0.47 | 0.28 | 62 | 1011.7 |
| 20260510171848 | 60 | 216 | 5.2 | 16.5 | 0.00 | 0.47 | 0.28 | 61 | 1011.8 |
| 20260510171349 | 60 | 196 | 7.8 | 14.8 | 0.00 | 0.47 | 0.28 | 57 | 1011.7 |
| 20260510170359 | 60 | 223 | 6.1 | 15.6 | 0.00 | 0.47 | 0.28 | 59 | 1011.8 |
| 20260510165902 | 60 | 200 | 9.6 | 14.8 | 0.00 | 0.47 | 0.28 | 57 | 1011.6 |
| 20260510165344 | 60 | 217 | 5.2 | 13.0 | 0.00 | 0.47 | 0.28 | 59 | 1011.8 |
| 20260510164847 | 61 | 218 | 7.8 | 13.9 | 0.00 | 0.57 | 0.28 | 58 | 1011.8 |
| 20260510164349 | 61 | 195 | 7.8 | 12.2 | 0.00 | 0.57 | 0.28 | 58 | 1011.7 |
| 20260510163854 | 61 | 207 | 5.2 | 12.2 | 0.00 | 0.57 | 0.28 | 61 | 1011.6 |
| 20260510163357 | 61 | 203 | 6.1 | 12.2 | 0.00 | 0.57 | 0.28 | 59 | 1011.8 |
| 20260510162900 | 60 | 184 | 6.1 | 12.2 | 0.00 | 0.57 | 0.28 | 60 | 1011.5 |
| 20260510161846 | 60 | 229 | 7.8 | 13.9 | 0.00 | 0.57 | 0.28 | 61 | 1011.7 |
| 20260510161350 | 60 | 215 | 5.2 | 14.8 | 0.00 | 0.57 | 0.28 | 62 | 1011.9 |
| 20260510155901 | 60 | 219 | 6.1 | 15.6 | 0.00 | 0.57 | 0.28 | 59 | 1011.8 |
| 20260510154849 | 60 | 197 | 7.8 | 17.4 | 0.00 | 0.57 | 0.28 | 60 | 1011.7 |
| 20260510154351 | 60 | 233 | 7.8 | 17.4 | 0.00 | 0.57 | 0.28 | 60 | 1011.9 |
| 20260510153855 | 60 | 188 | 7.8 | 13.9 | 0.00 | 0.57 | 0.28 | 59 | 1011.8 |
| 20260510152902 | 60 | 222 | 6.1 | 14.8 | 0.00 | 0.57 | 0.28 | 57 | 1011.6 |
| 20260510152345 | 60 | 196 | 6.1 | 13.0 | 0.00 | 0.57 | 0.28 | 58 | 1011.5 |
| 20260510151847 | 60 | 155 | 4.3 | 13.0 | 0.00 | 0.57 | 0.28 | 59 | 1011.6 |
| 20260510150358 | 59 | 194 | 5.2 | 15.6 | 0.00 | 0.57 | 0.28 | 61 | 1012.1 |
| 20260510145402 | 59 | 209 | 7.8 | 18.2 | 0.00 | 0.57 | 0.28 | 58 | 1012.0 |
| 20260510144902 | 59 | 220 | 10.4 | 20.0 | 0.00 | 0.58 | 0.28 | 58 | 1012.0 |
| 20260510144343 | 59 | 229 | 8.7 | 20.0 | 0.00 | 0.58 | 0.28 | 58 | 1012.0 |
| 20260510143345 | 59 | 219 | 10.4 | 20.0 | 0.00 | 0.58 | 0.28 | 62 | 1012.0 |
| 20260510142846 | 58 | 169 | 10.4 | 20.0 | 0.00 | 0.58 | 0.28 | 65 | 1012.2 |
| 20260510142348 | 57 | 209 | 7.8 | 16.5 | 0.00 | 0.58 | 0.28 | 67 | 1012.3 |
| 20260510141355 | 56 | 209 | 6.1 | 16.5 | 0.00 | 0.58 | 0.28 | 69 | 1012.4 |
| 20260510140855 | 56 | 205 | 6.1 | 19.1 | 0.00 | 0.58 | 0.28 | 69 | 1012.4 |
| 20260510135901 | 56 | 225 | 8.7 | 22.6 | 0.00 | 0.58 | 0.28 | 71 | 1012.7 |
| 20260510135407 | 56 | 209 | 9.6 | 20.0 | 0.00 | 0.58 | 0.28 | 73 | 1012.6 |
| 20260510134842 | 56 | 200 | 5.2 | 19.1 | 0.00 | 0.58 | 0.28 | 75 | 1012.4 |
| 20260510134346 | 56 | 187 | 6.1 | 19.1 | 0.00 | 0.58 | 0.28 | 75 | 1012.5 |
| 20260510133905 | 55 | 215 | 7.8 | 14.8 | 0.00 | 0.58 | 0.28 | 76 | 1012.4 |
| 20260510133410 | 55 | 213 | 6.1 | 12.2 | 0.00 | 0.58 | 0.28 | 77 | 1012.4 |
| 20260510132901 | 55 | 202 | 7.0 | 12.2 | 0.00 | 0.58 | 0.28 | 78 | 1012.4 |
| 20260510132343 | 55 | 238 | 3.5 | 11.3 | 0.00 | 0.58 | 0.28 | 80 | 1012.3 |
| 20260510131845 | 55 | 227 | 4.3 | 11.3 | 0.00 | 0.58 | 0.28 | 80 | 1012.4 |
| 20260510131350 | 55 | 190 | 5.2 | 8.7 | 0.00 | 0.58 | 0.28 | 81 | 1012.3 |
| 20260510130846 | 54 | 225 | 6.1 | 9.6 | 0.00 | 0.58 | 0.28 | 81 | 1012.2 |
| 20260510124403 | 55 | 215 | 5.2 | 12.2 | 0.00 | 0.59 | 0.28 | 81 | 1012.4 |
| 20260510123901 | 55 | 144 | 6.1 | 12.2 | 0.01 | 0.59 | 0.28 | 80 | 1012.5 |
| 20260510123358 | 55 | 190 | 4.3 | 13.9 | 0.01 | 0.59 | 0.28 | 79 | 1012.3 |
| 20260510122901 | 55 | 232 | 6.1 | 13.9 | 0.01 | 0.59 | 0.28 | 79 | 1012.5 |
| 20260510122343 | 56 | 229 | 7.0 | 13.9 | 0.01 | 0.59 | 0.28 | 77 | 1012.5 |
| 20260510121846 | 56 | 207 | 3.5 | 10.4 | 0.01 | 0.59 | 0.28 | 77 | 1012.6 |
| 20260510121351 | 56 | 211 | 5.2 | 12.2 | 0.01 | 0.59 | 0.28 | 78 | 1012.6 |
| 20260510120854 | 56 | 169 | 6.1 | 12.2 | 0.01 | 0.59 | 0.28 | 78 | 1012.3 |
| 20260510120400 | 56 | 208 | 6.1 | 11.3 | 0.01 | 0.59 | 0.28 | 79 | 1012.2 |
| 20260510115901 | 55 | 205 | 3.5 | 12.2 | 0.01 | 0.59 | 0.28 | 80 | 1012.2 |
| 20260510115401 | 55 | 161 | 6.1 | 12.2 | 0.01 | 0.59 | 0.28 | 80 | 1012.5 |
| 20260510114844 | 55 | 167 | 3.5 | 9.6 | 0.01 | 0.66 | 0.28 | 82 | 1012.6 |
| 20260510114346 | 55 | 192 | 3.5 | 11.3 | 0.01 | 0.66 | 0.28 | 82 | 1012.5 |
| 20260510113353 | 54 | 156 | 3.5 | 10.4 | 0.00 | 0.65 | 0.28 | 82 | 1012.5 |
| 20260510112852 | 54 | 221 | 3.5 | 12.2 | 0.00 | 0.65 | 0.28 | 82 | 1012.7 |
| 20260510112356 | 54 | 215 | 7.0 | 12.2 | 0.00 | 0.65 | 0.28 | 82 | 1012.8 |
| 20260510111856 | 54 | 198 | 6.1 | 16.5 | 0.00 | 0.65 | 0.28 | 83 | 1012.7 |
| 20260510111357 | 53 | 212 | 7.8 | 16.5 | 0.00 | 0.65 | 0.28 | 82 | 1012.7 |
| 20260510110347 | 53 | 213 | 7.8 | 13.9 | 0.03 | 0.65 | 0.28 | 83 | 1012.8 |
| 20260510105847 | 53 | 225 | 6.1 | 13.9 | 0.11 | 0.65 | 0.28 | 83 | 1012.7 |
| 20260510105347 | 53 | 188 | 7.0 | 13.9 | 0.15 | 0.65 | 0.28 | 82 | 1012.7 |
| 20260510104849 | 53 | 190 | 7.8 | 15.6 | 0.22 | 0.70 | 0.28 | 82 | 1012.6 |
| 20260510103853 | 53 | 219 | 9.6 | 13.9 | 0.24 | 0.70 | 0.28 | 83 | 1012.7 |
| 20260510103355 | 52 | 233 | 3.5 | 9.6 | 0.24 | 0.70 | 0.28 | 83 | 1012.7 |
| 20260510102857 | 52 | 221 | 5.2 | 10.4 | 0.24 | 0.70 | 0.28 | 83 | 1012.7 |
| 20260510101901 | 51 | 258 | 6.1 | 11.3 | 0.24 | 0.70 | 0.28 | 83 | 1012.8 |
| 20260510100845 | 51 | 202 | 2.6 | 12.2 | 0.24 | 0.70 | 0.28 | 83 | 1012.8 |
| 20260510100352 | 51 | 230 | 6.1 | 12.2 | 0.20 | 0.67 | 0.24 | 83 | 1012.9 |
| 20260510095400 | 52 | 251 | 6.1 | 15.6 | 0.09 | 0.55 | 0.13 | 82 | 1012.3 |
| 20260510094900 | 55 | 265 | 8.7 | 13.0 | 0.03 | 0.50 | 0.07 | 83 | 1012.2 |
| 20260510094403 | 55 | 161 | 6.1 | 13.0 | 0.01 | 0.47 | 0.05 | 82 | 1011.6 |
| 20260510093845 | 55 | 131 | 7.8 | 13.0 | 0.00 | 0.46 | 0.04 | 82 | 1011.6 |
| 20260510093349 | 56 | 144 | 7.8 | 12.2 | 0.00 | 0.46 | 0.04 | 82 | 1011.7 |
| 20260510092356 | 56 | 147 | 6.1 | 14.8 | 0.00 | 0.46 | 0.04 | 82 | 1011.8 |
| 20260510091855 | 56 | 157 | 8.7 | 14.8 | 0.01 | 0.46 | 0.04 | 82 | 1011.7 |
| 20260510091356 | 56 | 157 | 7.0 | 13.9 | 0.01 | 0.46 | 0.04 | 82 | 1011.9 |
| 20260510090859 | 55 | 111 | 7.0 | 13.0 | 0.01 | 0.46 | 0.04 | 82 | 1012.0 |
| 20260510090359 | 55 | 123 | 6.1 | 13.0 | 0.01 | 0.46 | 0.04 | 83 | 1012.0 |
| 20260510085900 | 55 | 146 | 5.2 | 14.8 | 0.01 | 0.46 | 0.04 | 83 | 1012.0 |
| 20260510085402 | 55 | 157 | 8.7 | 14.8 | 0.01 | 0.46 | 0.04 | 83 | 1012.2 |
| 20260510084902 | 54 | 129 | 5.2 | 12.2 | 0.01 | 0.47 | 0.04 | 83 | 1012.2 |
| 20260510084402 | 54 | 157 | 7.0 | 12.2 | 0.02 | 0.47 | 0.04 | 83 | 1012.2 |
| 20260510083844 | 54 | 115 | 8.7 | 12.2 | 0.02 | 0.47 | 0.04 | 83 | 1012.4 |
| 20260510083345 | 54 | 188 | 1.7 | 12.2 | 0.03 | 0.47 | 0.04 | 83 | 1012.5 |
| 20260510082847 | 54 | 163 | 7.0 | 12.2 | 0.03 | 0.47 | 0.04 | 83 | 1012.5 |
| 20260510082351 | 53 | 175 | 6.1 | 9.6 | 0.03 | 0.47 | 0.04 | 83 | 1012.6 |
| 20260510081856 | 53 | 182 | 4.3 | 13.0 | 0.02 | 0.46 | 0.03 | 83 | 1012.6 |
| 20260510081359 | 53 | 159 | 7.0 | 13.0 | 0.02 | 0.46 | 0.03 | 84 | 1012.7 |
| 20260510080901 | 53 | 188 | 5.2 | 9.6 | 0.02 | 0.46 | 0.03 | 84 | 1012.8 |
| 20260510075849 | 53 | 196 | 0.0 | 3.5 | 0.02 | 0.46 | 0.03 | 84 | 1012.6 |
| 20260510075346 | 52 | 196 | 0.0 | 3.5 | 0.02 | 0.46 | 0.03 | 84 | 1012.5 |
| 20260510074849 | 52 | 197 | 0.9 | 2.6 | 0.02 | 0.46 | 0.03 | 84 | 1012.7 |
| 20260510074350 | 52 | 197 | 0.0 | 2.6 | 0.01 | 0.45 | 0.02 | 84 | 1012.9 |
| 20260510073356 | 52 | 197 | 2.6 | 4.3 | 0.00 | 0.44 | 0.01 | 84 | 1013.0 |
| 20260510072856 | 52 | 196 | 2.6 | 4.3 | 0.00 | 0.44 | 0.01 | 84 | 1012.9 |
| 20260510072358 | 52 | 194 | 1.7 | 5.2 | 0.00 | 0.44 | 0.01 | 84 | 1012.9 |
| 20260510071859 | 51 | 193 | 1.7 | 5.2 | 0.00 | 0.44 | 0.01 | 84 | 1012.8 |
| 20260510071358 | 51 | 197 | 0.9 | 4.3 | 0.00 | 0.44 | 0.01 | 84 | 1012.7 |
| 20260510070901 | 51 | 197 | 0.9 | 4.3 | 0.00 | 0.44 | 0.01 | 84 | 1012.8 |
| 20260510065859 | 51 | 198 | 1.7 | 4.3 | 0.00 | 0.44 | 0.01 | 84 | 1012.7 |
| 20260510064350 | 51 | 198 | 0.9 | 1.7 | 0.00 | 0.44 | 0.01 | 84 | 1012.7 |
| 20260510063849 | 51 | 198 | 0.0 | 0.0 | 0.00 | 0.44 | 0.01 | 84 | 1012.6 |
| 20260510063349 | 51 | 198 | 0.0 | 0.0 | 0.00 | 0.44 | 0.01 | 84 | 1012.6 |
| 20260510062354 | 51 | 198 | 0.0 | 0.9 | 0.00 | 0.44 | 0.01 | 84 | 1012.5 |
| 20260510061853 | 51 | 198 | 0.0 | 0.9 | 0.00 | 0.44 | 0.01 | 84 | 1012.6 |
| 20260510061354 | 51 | 198 | 0.0 | 0.0 | 0.00 | 0.44 | 0.01 | 84 | 1012.6 |
| 20260510060359 | 50 | 198 | 0.0 | 0.9 | 0.00 | 0.44 | 0.01 | 84 | 1012.5 |
| 20260510055902 | 50 | 198 | 0.0 | 1.7 | 0.00 | 0.44 | 0.01 | 84 | 1012.5 |
| 20260510055344 | 50 | 198 | 0.9 | 1.7 | 0.00 | 0.44 | 0.01 | 84 | 1012.5 |
| 20260510054848 | 50 | 198 | 0.0 | 1.7 | 0.01 | 0.44 | 0.01 | 84 | 1012.5 |
| 20260510054350 | 50 | 198 | 0.0 | 1.7 | 0.01 | 0.44 | 0.01 | 84 | 1012.4 |
| 20260510053359 | 50 | 198 | 0.0 | 0.0 | 0.01 | 0.44 | 0.01 | 84 | 1012.4 |
| 20260510052900 | 50 | 198 | 0.0 | 0.0 | 0.01 | 0.44 | 0.01 | 84 | 1012.5 |
| 20260510052401 | 50 | 198 | 0.0 | 0.0 | 0.01 | 0.44 | 0.01 | 84 | 1012.5 |
| 20260510051902 | 50 | 198 | 0.0 | 0.0 | 0.01 | 0.44 | 0.01 | 84 | 1012.6 |
| 20260510051343 | 50 | 198 | 0.0 | 0.0 | 0.01 | 0.44 | 0.01 | 84 | 1012.5 |
| 20260510050844 | 50 | 198 | 0.0 | 1.7 | 0.01 | 0.44 | 0.01 | 84 | 1012.5 |
| 20260510050349 | 50 | 198 | 0.9 | 1.7 | 0.01 | 0.44 | 0.01 | 84 | 1012.5 |
| 20260510045849 | 50 | 198 | 0.0 | 0.0 | 0.01 | 0.44 | 0.01 | 84 | 1012.5 |
| 20260510045352 | 50 | 198 | 0.0 | 0.0 | 0.01 | 0.44 | 0.01 | 84 | 1012.4 |
| 20260510044851 | 50 | 198 | 0.0 | 0.0 | 0.00 | 0.43 | 0.00 | 84 | 1012.4 |
| 20260510044355 | 50 | 198 | 0.0 | 0.0 | 0.00 | 0.43 | 0.00 | 84 | 1012.4 |
| 20260510043855 | 50 | 198 | 0.0 | 0.0 | 0.00 | 0.43 | 0.00 | 84 | 1012.4 |
| 20260510043356 | 50 | 198 | 0.0 | 0.0 | 0.00 | 0.43 | 0.00 | 84 | 1012.4 |
| 20260510042858 | 50 | 198 | 0.0 | 0.0 | 0.00 | 0.43 | 0.00 | 84 | 1012.4 |
| 20260510042402 | 50 | 198 | 0.0 | 0.0 | 0.00 | 0.43 | 0.00 | 84 | 1012.5 |
| 20260510041902 | 50 | 198 | 0.0 | 1.7 | 0.00 | 0.43 | 0.00 | 84 | 1012.4 |
| 20260510041343 | 50 | 198 | 0.0 | 1.7 | 0.00 | 0.43 | 0.00 | 84 | 1012.5 |
| 20260510040350 | 51 | 198 | 0.0 | 1.7 | 0.00 | 0.43 | 0.00 | 84 | 1012.4 |
| 20260510035850 | 51 | 198 | 0.0 | 2.6 | 0.00 | 0.43 | 0.00 | 84 | 1012.4 |
| 20260510035349 | 51 | 198 | 0.9 | 2.6 | 0.00 | 0.43 | 0.00 | 84 | 1012.5 |
| 20260510034850 | 51 | 198 | 0.0 | 2.6 | 0.00 | 0.43 | 0.00 | 84 | 1012.5 |
| 20260510034353 | 51 | 198 | 0.0 | 1.7 | 0.00 | 0.43 | 0.00 | 84 | 1012.5 |
| 20260510033855 | 51 | 198 | 0.0 | 1.7 | 0.00 | 0.43 | 0.00 | 84 | 1012.5 |
| 20260510033358 | 51 | 198 | 0.0 | 3.5 | 0.00 | 0.43 | 0.00 | 84 | 1012.5 |
| 20260510032858 | 51 | 198 | 2.6 | 3.5 | 0.00 | 0.43 | 0.00 | 84 | 1012.6 |
| 20260510031845 | 51 | 198 | 0.9 | 4.3 | 0.00 | 0.43 | 0.00 | 84 | 1012.8 |
| 20260510031348 | 51 | 196 | 0.9 | 2.6 | 0.00 | 0.43 | 0.00 | 84 | 1012.7 |
| 20260510030851 | 51 | 196 | 0.0 | 1.7 | 0.00 | 0.43 | 0.00 | 84 | 1012.6 |
| 20260510030353 | 50 | 196 | 0.0 | 1.7 | 0.00 | 0.43 | 0.00 | 84 | 1012.5 |
| 20260510025856 | 50 | 196 | 0.0 | 3.5 | 0.00 | 0.43 | 0.00 | 84 | 1012.6 |
| 20260510024901 | 51 | 196 | 0.9 | 4.3 | 0.00 | 0.43 | 0.00 | 84 | 1012.6 |
| 20260510024343 | 51 | 196 | 2.6 | 4.3 | 0.00 | 0.43 | 0.00 | 84 | 1012.5 |
| 20260510023845 | 51 | 202 | 1.7 | 3.5 | 0.00 | 0.43 | 0.00 | 84 | 1012.7 |
| 20260510023348 | 51 | 202 | 1.7 | 4.3 | 0.00 | 0.43 | 0.00 | 84 | 1012.7 |
| 20260510022847 | 51 | 202 | 1.7 | 4.3 | 0.00 | 0.43 | 0.00 | 84 | 1012.8 |
| 20260510022349 | 51 | 213 | 2.6 | 4.3 | 0.00 | 0.43 | 0.00 | 84 | 1012.9 |
| 20260510021849 | 51 | 213 | 2.6 | 3.5 | 0.00 | 0.43 | 0.00 | 84 | 1012.9 |
| 20260510021353 | 51 | 213 | 1.7 | 3.5 | 0.00 | 0.43 | 0.00 | 84 | 1012.8 |
| 20260510020858 | 51 | 213 | 1.7 | 3.5 | 0.00 | 0.43 | 0.00 | 84 | 1012.9 |
| 20260510020356 | 51 | 213 | 1.7 | 3.5 | 0.00 | 0.43 | 0.00 | 84 | 1012.8 |
| 20260510015402 | 51 | 213 | 0.9 | 3.5 | 0.00 | 0.43 | 0.00 | 84 | 1012.8 |
| 20260510014347 | 51 | 213 | 2.6 | 4.3 | 0.00 | 0.43 | 0.00 | 84 | 1012.9 |
| 20260510013850 | 51 | 213 | 2.6 | 4.3 | 0.00 | 0.43 | 0.00 | 84 | 1012.8 |
| 20260510013352 | 52 | 213 | 2.6 | 4.3 | 0.00 | 0.43 | 0.00 | 84 | 1012.7 |
| 20260510012853 | 52 | 215 | 0.9 | 1.7 | 0.00 | 0.43 | 0.00 | 84 | 1012.8 |
| 20260510011855 | 52 | 214 | 0.0 | 2.6 | 0.00 | 0.43 | 0.00 | 84 | 1012.9 |
| 20260510011358 | 52 | 214 | 0.0 | 1.7 | 0.00 | 0.43 | 0.00 | 84 | 1012.9 |
| 20260510010858 | 52 | 214 | 0.9 | 3.5 | 0.00 | 0.43 | 0.00 | 84 | 1012.9 |
| 20260510005902 | 52 | 214 | 0.0 | 3.5 | 0.00 | 0.43 | 0.00 | 84 | 1012.9 |
| 20260510005402 | 52 | 215 | 0.0 | 4.3 | 0.00 | 0.43 | 0.00 | 84 | 1012.9 |
| 20260510004844 | 52 | 215 | 1.7 | 5.2 | 0.00 | 0.43 | 0.00 | 84 | 1013.0 |
| 20260510004343 | 52 | 215 | 3.5 | 5.2 | 0.00 | 0.43 | 0.00 | 84 | 1012.9 |
| 20260510003845 | 52 | 215 | 0.9 | 4.3 | 0.00 | 0.43 | 0.00 | 84 | 1012.9 |
| 20260510003349 | 52 | 215 | 2.6 | 4.3 | 0.00 | 0.43 | 0.00 | 84 | 1012.9 |
| 20260510002849 | 52 | 213 | 2.6 | 3.5 | 0.00 | 0.43 | 0.00 | 84 | 1013.0 |
| 20260510002354 | 52 | 213 | 0.9 | 4.3 | 0.00 | 0.43 | 0.00 | 84 | 1013.0 |
| 20260510001900 | 52 | 213 | 0.0 | 4.3 | 0.00 | 0.43 | 0.00 | 84 | 1013.1 |
| 20260510001359 | 52 | 210 | 0.9 | 4.3 | 0.00 | 0.43 | 0.00 | 84 | 1013.1 |
| 20260510000902 | 52 | 210 | 0.9 | 4.3 | 0.00 | 0.43 | 0.00 | 84 | 1013.1 |
| 20260510000342 | 52 | 210 | 0.9 | 3.5 | 0.00 | 0.43 | 0.00 | 84 | 1013.1 |
| 20260509235846 | 52 | 209 | 0.0 | 3.5 | 0.00 | 0.43 | 0.00 | 84 | 1013.0 |
| 20260509235345 | 52 | 209 | 0.9 | 3.5 | 0.00 | 0.43 | 0.00 | 84 | 1013.0 |
| 20260509234846 | 52 | 209 | 1.7 | 4.3 | 0.00 | 0.43 | 0.00 | 84 | 1013.0 |
| 20260509234345 | 51 | 209 | 2.6 | 4.3 | 0.00 | 0.43 | 0.00 | 84 | 1013.0 |
| 20260509232346 | 51 | 209 | 0.0 | 3.5 | 0.01 | 0.43 | 0.00 | 83 | 1013.1 |
| 20260509231847 | 51 | 208 | 0.0 | 3.5 | 0.01 | 0.43 | 0.00 | 84 | 1013.2 |
| 20260509231346 | 51 | 208 | 1.7 | 3.5 | 0.01 | 0.43 | 0.00 | 84 | 1013.1 |
| 20260509230846 | 51 | 208 | 1.7 | 3.5 | 0.01 | 0.43 | 0.00 | 84 | 1013.1 |
| 20260509230349 | 51 | 209 | 0.9 | 4.3 | 0.01 | 0.43 | 0.00 | 84 | 1013.0 |
| 20260509225853 | 51 | 209 | 0.9 | 4.3 | 0.02 | 0.43 | 0.00 | 84 | 1013.0 |
| 20260509225355 | 51 | 209 | 1.7 | 2.6 | 0.02 | 0.43 | 0.43 | 84 | 1013.0 |
| 20260509224857 | 51 | 209 | 0.0 | 3.5 | 0.02 | 0.43 | 0.43 | 84 | 1012.9 |
| 20260509224358 | 51 | 209 | 0.0 | 4.3 | 0.02 | 0.43 | 0.43 | 84 | 1013.0 |
| 20260509223857 | 51 | 209 | 0.9 | 4.3 | 0.02 | 0.43 | 0.43 | 84 | 1013.0 |
| 20260509223357 | 51 | 257 | 0.9 | 3.5 | 0.02 | 0.43 | 0.43 | 84 | 1012.9 |
| 20260509222859 | 51 | 260 | 0.0 | 1.7 | 0.03 | 0.43 | 0.43 | 84 | 1012.9 |
| 20260509221845 | 51 | 260 | 0.9 | 1.7 | 0.02 | 0.43 | 0.43 | 84 | 1012.8 |
| 20260509221346 | 51 | 260 | 0.9 | 1.7 | 0.02 | 0.43 | 0.43 | 84 | 1012.8 |
| 20260509220849 | 51 | 260 | 0.0 | 1.7 | 0.02 | 0.43 | 0.43 | 84 | 1012.7 |
| 20260509215854 | 51 | 260 | 0.9 | 4.3 | 0.02 | 0.42 | 0.42 | 84 | 1012.5 |
| 20260509215357 | 52 | 219 | 2.6 | 3.5 | 0.01 | 0.41 | 0.41 | 84 | 1012.6 |
| 20260509214858 | 51 | 216 | 0.0 | 1.7 | 0.01 | 0.41 | 0.41 | 84 | 1012.3 |
| 20260509214356 | 51 | 216 | 0.0 | 2.6 | 0.02 | 0.41 | 0.41 | 84 | 1012.2 |
| 20260509213856 | 51 | 216 | 0.9 | 4.3 | 0.02 | 0.41 | 0.41 | 84 | 1012.2 |
| 20260509213356 | 52 | 216 | 0.9 | 4.3 | 0.02 | 0.41 | 0.41 | 84 | 1012.1 |
| 20260509212856 | 51 | 216 | 0.9 | 4.3 | 0.02 | 0.40 | 0.40 | 84 | 1012.1 |
| 20260509212359 | 51 | 216 | 0.9 | 4.3 | 0.03 | 0.40 | 0.40 | 84 | 1012.1 |
| 20260509211859 | 52 | 216 | 1.7 | 3.5 | 0.05 | 0.40 | 0.40 | 84 | 1012.0 |